Simultaneous Nadir Overpasses (SNOs) Predictions

Prediction of SNOs between GOES-14 and NOAA-20 Satellite Orbit:

Table of predicted SNOs for the next 14.0 days since TLE Epoch: 10/2/2021
Index Date Time (GOES-14) GOES-14 Lat,Lon NOAA-20 Lat,Lon Distance(km) Time Diff (sec)
1 10/02/2021 08:32:57 0.31,-104.23 0.83,-106.67 277.96 80
2 10/03/2021 08:11:32 0.32,-104.21 -0.16,-102.13 237.36 80
3 10/04/2021 20:33:28 -0.30,-104.21 -1.00,-107.44 367.72 80
4 10/05/2021 20:17:23 -0.30,-104.22 -0.02,-102.90 150.18 80
5 10/07/2021 08:39:10 0.28,-104.25 1.18,-108.17 447.59 80
6 10/08/2021 08:17:45 0.30,-104.24 0.19,-103.63 67.85 80
7 10/10/2021 20:20:55 -0.29,-104.20 -0.36,-104.41 24.28 80
8 10/11/2021 20:04:51 -0.29,-104.21 0.69, -99.88 493.32 80
9 10/13/2021 08:26:38 0.27,-104.24 0.48,-105.15 103.55 80
10 10/14/2021 08:05:13 0.28,-104.23 -0.51,-100.61 411.53 80
11 10/15/2021 20:27:09 -0.25,-104.17 -0.63,-105.92 199.99 80
